LIMJLFMN

Guest
Details From LIMJ - Genova Sestri
To LFMN - Nice/Cote d'Azur
Flight Number -
Tags decoded
Created
Modified
Stats Distance 91 nm / 169 km
Max Altitude 0 ft / 0 m
Waypoints 3
Social Downloads 1
Likes 0
Share VATSIM

Download

Looking for another format? Having issues loading an existing format? Contact us
Advertisement - Login to hide

Notes

Requested: LIMJ IXITO LFMN

Route

LIMJ IXITO LFMN

ID Type Via Altitude Latitude Longitude Leg Dist Tot Dist Heading (true) Name
O LIMJ APT - 0 ft / 0 m 44.41196˚ 8.84187˚ - 0 nm - Genova Sestri
IXITO FIX - 0 ft / 0 m 44.13472˚ 8.80361˚ 16 nm 16 nm 186° / 186° -
O LFMN APT - 0 ft / 0 m 43.65798˚ 7.21536˚ 74 nm 91 nm 248° / 247° Nice/Cote d'Azur

Altitude Profile

Advertisement - Login to hide

LIMJ

Details ICAO LIMJ (GOA)
Name Genova Sestri
Region Italy
Timezone Unknown (UTC+0.0)
Stats Elevation 13 ft / 4 m (AMSL)
Location 44.411957° 8.841866°
Runways 1
Magnetic Variation 2.429° E

METAR

LIMJ 251520Z 19005KT 150V220 9999 FEW022 19/15 Q1016

Decode

TAF

TAF LIMJ 251100Z 2512/2612 VRB05KT 9999 SCT025

Decode

Departure Runways

ID Width Length Bearing (true) Bearing (mag) Surface Threshold Offset Overrun Length
10 148 ft / 45 m 9,574 ft / 2,918 m 105.39° 102.96° Asphalt 0 ft / 0 m 0 ft / 0 m
28 148 ft / 45 m 9,574 ft / 2,918 m 285.41° 282.98° Asphalt 538 ft / 164 m 0 ft / 0 m

LFMN

Details ICAO LFMN (NCE)
Name Nice/Cote d'Azur
Region France
Timezone Unknown (UTC+0.0)
Stats Elevation 12 ft / 4 m (AMSL)
Location 43.657981° 7.215362°
Runways 2
Magnetic Variation 2.057° E

METAR

LFMN 251530Z 15003KT 9999 SCT010 BKN031 18/15 Q1016 NOSIG

Decode

TAF

TAF LFMN 251400Z 2515/2621 10008KT 9999 BKN030 BECMG 2518/2520 VRB03KT BKN012 BECMG 2607/2609 18005KT BKN020 BECMG 2618/2620 VRB03KT SCT020

Decode

Destination Runways

ID Width Length Bearing (true) Bearing (mag) Surface Threshold Offset Overrun Length
04L 148 ft / 45 m 8,427 ft / 2,569 m 44.85° 42.79° Asphalt 0 ft / 0 m 131 ft / 40 m
04R 148 ft / 45 m 9,720 ft / 2,963 m 44.60° 42.54° Asphalt 0 ft / 0 m 427 ft / 130 m
22L 148 ft / 45 m 9,720 ft / 2,963 m 224.62° 222.56° Asphalt 0 ft / 0 m 525 ft / 160 m
22R 148 ft / 45 m 8,427 ft / 2,569 m 224.87° 222.81° Asphalt 0 ft / 0 m 492 ft / 150 m

Approach Navaids

Runway Type Ident Frequency Range Bearing (true) Bearing (mag) Slope Elevation
04L Localiser NI 109.95 MHz 27 nm / 50 km 44.90° 42.84° - 12 ft / 4 m (AMSL)
04L Glidescope NI 109.95 MHz 27 nm / 50 km 44.90° 42.84° 3.00° 12 ft / 4 m (AMSL)
04L DME NI 109.95 MHz 27 nm / 50 km - - - 12 ft / 4 m (AMSL)
04R Localiser NA 110.70 MHz 27 nm / 50 km 42.00° 39.94° - 12 ft / 4 m (AMSL)
04R Glidescope NA 110.70 MHz 27 nm / 50 km 42.00° 39.94° 3.00° 12 ft / 4 m (AMSL)
04R DME NA 110.70 MHz 27 nm / 50 km - - - 12 ft / 4 m (AMSL)

Popular Alternatives